| time (UTC) | temp C | wind direction | speed KPH | gust KPH | rain 1hr cm | rain 24hr cm | rain mn cm | humidity % | barometer mb |
| 20260903025503 | 24 | 169 | 1.6 | 3.2 | 0.00 | 0.00 | 0.00 | 88 | 1016.5 |
| 20260903025006 | 23 | 169 | 0.0 | 3.2 | 0.00 | 0.00 | 0.00 | 90 | 1016.6 |
| 20260903024511 | 23 | 169 | 0.0 | 3.2 | 0.00 | 0.00 | 0.00 | 91 | 1016.5 |
| 20260903024008 | 23 | 169 | 0.0 | 3.2 | 0.00 | 0.00 | 0.00 | 91 | 1016.6 |
| 20260903023508 | 23 | 169 | 0.0 | 0.0 | 0.00 | 0.00 | 0.00 | 90 | 1016.6 |
| 20260903023022 | 23 | 169 | 0.0 | 0.0 | 0.00 | 0.00 | 0.00 | 90 | 1016.6 |
| 20260903022511 | 23 | 169 | 0.0 | 0.0 | 0.00 | 0.00 | 0.00 | 90 | 1016.7 |
| 20260903022011 | 24 | 169 | 0.0 | 0.0 | 0.00 | 0.00 | 0.00 | 90 | 1016.7 |
| 20260903021528 | 24 | 169 | 0.0 | 0.0 | 0.00 | 0.00 | 0.00 | 89 | 1016.7 |
| 20260903021011 | 24 | 169 | 0.0 | 0.0 | 0.00 | 0.00 | 0.00 | 89 | 1016.7 |
| 20260903020515 | 24 | 169 | 0.0 | 0.0 | 0.00 | 0.00 | 0.00 | 88 | 1016.7 |
| 20260903020039 | 25 | 169 | 0.0 | 0.0 | 0.00 | 0.00 | 0.00 | 88 | 1016.7 |
| 20260903015516 | 25 | 169 | 0.0 | 0.0 | 0.00 | 0.00 | 0.00 | 87 | 1016.7 |
| 20260903015003 | 25 | 169 | 0.0 | 0.0 | 0.00 | 0.00 | 0.00 | 87 | 1016.6 |
| 20260903014512 | 25 | 169 | 0.0 | 0.0 | 0.00 | 0.00 | 0.00 | 86 | 1016.6 |
| 20260903014004 | 25 | 169 | 0.0 | 0.0 | 0.00 | 0.00 | 0.00 | 86 | 1016.6 |
| 20260903013509 | 25 | 169 | 0.0 | 0.0 | 0.00 | 0.00 | 0.00 | 84 | 1016.5 |
| 20260903013020 | 26 | 169 | 0.0 | 0.0 | 0.00 | 0.00 | 0.00 | 84 | 1016.5 |
| 20260903012509 | 26 | 169 | 0.0 | 0.0 | 0.00 | 0.00 | 0.00 | 84 | 1016.5 |
| 20260903012011 | 26 | 169 | 0.0 | 0.0 | 0.00 | 0.00 | 0.00 | 83 | 1016.6 |
| 20260903011526 | 26 | 169 | 0.0 | 0.0 | 0.00 | 0.00 | 0.00 | 82 | 1016.5 |
| 20260903011015 | 26 | 169 | 0.0 | 0.0 | 0.00 | 0.00 | 0.00 | 81 | 1016.4 |
| 20260903010514 | 27 | 169 | 0.0 | 0.0 | 0.00 | 0.00 | 0.00 | 80 | 1016.3 |
| 20260903010032 | 27 | 169 | 0.0 | 3.2 | 0.00 | 0.00 | 0.00 | 79 | 1016.3 |
| 20260903005514 | 27 | 169 | 0.0 | 3.2 | 0.00 | 0.00 | 0.00 | 77 | 1016.3 |
| 20260903005018 | 27 | 169 | 0.0 | 3.2 | 0.00 | 0.00 | 0.00 | 76 | 1016.2 |
| 20260903004534 | 27 | 169 | 0.0 | 3.2 | 0.00 | 0.00 | 0.00 | 76 | 1016.2 |
| 20260903004004 | 28 | 169 | 0.0 | 3.2 | 0.00 | 0.00 | 0.00 | 76 | 1016.0 |
| 20260903003504 | 28 | 169 | 1.6 | 3.2 | 0.00 | 0.00 | 0.00 | 75 | 1015.9 |
| 20260903003015 | 28 | 169 | 0.0 | 3.2 | 0.00 | 0.00 | 0.00 | 75 | 1015.9 |
| 20260903002509 | 28 | 169 | 1.6 | 3.2 | 0.00 | 0.00 | 0.00 | 74 | 1015.9 |
| 20260903002011 | 28 | 169 | 0.0 | 1.6 | 0.00 | 0.00 | 0.00 | 73 | 1016.0 |
| 20260903001653 | 28 | 169 | 1.6 | 3.2 | 0.00 | 0.00 | 0.00 | 72 | 1015.9 |
| 20260903001042 | 29 | 192 | 1.6 | 3.2 | 0.00 | 0.00 | 0.00 | 71 | 1015.9 |
| 20260903000512 | 29 | 142 | 0.0 | 4.8 | 0.00 | 0.00 | 0.00 | 71 | 1016.0 |
| 20260903000039 | 29 | 196 | 0.0 | 4.8 | 0.00 | 0.00 | 0.00 | 71 | 1016.0 |
| 20260902235513 | 30 | 205 | 1.6 | 3.2 | 0.00 | 0.00 | 0.00 | 70 | 1016.0 |
| 20260902235013 | 30 | 205 | 1.6 | 4.8 | 0.00 | 0.00 | 0.00 | 70 | 1016.0 |
| 20260902234530 | 30 | 197 | 0.0 | 4.8 | 0.00 | 0.00 | 0.00 | 69 | 1016.0 |
| 20260902234016 | 30 | 168 | 0.0 | 3.2 | 0.00 | 0.00 | 0.00 | 69 | 1016.0 |
| 20260902233517 | 30 | 163 | 1.6 | 4.8 | 0.00 | 0.00 | 0.00 | 69 | 1015.9 |
| 20260902233034 | 30 | 195 | 1.6 | 4.8 | 0.00 | 0.00 | 0.00 | 67 | 1016.0 |
| 20260902232508 | 30 | 205 | 1.6 | 4.8 | 0.00 | 0.00 | 0.00 | 67 | 1016.0 |
| 20260902232051 | 31 | 180 | 1.6 | 4.8 | 0.00 | 0.00 | 0.00 | 67 | 1016.0 |
| 20260902231523 | 31 | 192 | 1.6 | 4.8 | 0.00 | 0.00 | 0.00 | 66 | 1015.9 |
| 20260902231009 | 31 | 196 | 3.2 | 8.0 | 0.00 | 0.00 | 0.00 | 65 | 1015.9 |
| 20260902230508 | 31 | 165 | 1.6 | 8.0 | 0.00 | 0.00 | 0.00 | 65 | 1015.8 |
| 20260902230026 | 31 | 218 | 1.6 | 6.4 | 0.00 | 0.00 | 0.00 | 64 | 1015.9 |
| 20260902225513 | 31 | 184 | 1.6 | 6.4 | 0.00 | 0.00 | 0.00 | 63 | 1015.9 |
| 20260902225012 | 31 | 193 | 1.6 | 6.4 | 0.00 | 0.00 | 0.00 | 63 | 1016.0 |
| 20260902224533 | 31 | 221 | 1.6 | 9.7 | 0.00 | 0.00 | 0.00 | 62 | 1016.0 |
| 20260902224014 | 32 | 190 | 0.0 | 9.7 | 0.00 | 0.00 | 0.00 | 61 | 1015.9 |
| 20260902223516 | 32 | 205 | 1.6 | 11.3 | 0.00 | 0.00 | 0.00 | 60 | 1016.0 |
| 20260902223051 | 32 | 144 | 4.8 | 11.3 | 0.00 | 0.00 | 0.00 | 59 | 1016.0 |
| 20260902222516 | 32 | 200 | 3.2 | 8.0 | 0.00 | 0.00 | 0.00 | 59 | 1016.0 |
| 20260902222018 | 32 | 267 | 1.6 | 9.7 | 0.00 | 0.00 | 0.00 | 59 | 1016.1 |
| 20260902221520 | 32 | 279 | 1.6 | 19.3 | 0.00 | 0.00 | 0.00 | 58 | 1016.0 |
| 20260902221008 | 32 | 246 | 6.4 | 19.3 | 0.00 | 0.00 | 0.00 | 57 | 1016.0 |
| 20260902220510 | 33 | 219 | 3.2 | 11.3 | 0.00 | 0.00 | 0.00 | 57 | 1016.0 |
| 20260902220024 | 33 | 153 | 3.2 | 11.3 | 0.00 | 0.00 | 0.00 | 56 | 1016.0 |
| 20260902215509 | 33 | 280 | 3.2 | 12.9 | 0.00 | 0.00 | 0.00 | 55 | 1015.9 |
| 20260902215014 | 33 | 223 | 3.2 | 12.9 | 0.00 | 0.00 | 0.00 | 56 | 1015.9 |
| 20260902214529 | 33 | 215 | 3.2 | 9.7 | 0.00 | 0.00 | 0.00 | 55 | 1016.0 |
| 20260902214016 | 33 | 175 | 4.8 | 16.1 | 0.00 | 0.00 | 0.00 | 54 | 1016.1 |
| 20260902213517 | 33 | 229 | 6.4 | 16.1 | 0.00 | 0.00 | 0.00 | 54 | 1016.1 |
| 20260902213031 | 33 | 163 | 6.4 | 16.1 | 0.00 | 0.00 | 0.00 | 58 | 1016.0 |
| 20260902212514 | 33 | 286 | 4.8 | 16.1 | 0.00 | 0.00 | 0.00 | 56 | 1016.0 |
| 20260902212020 | 33 | 165 | 1.6 | 11.3 | 0.00 | 0.00 | 0.00 | 57 | 1016.1 |
| 20260902211534 | 33 | 202 | 4.8 | 11.3 | 0.00 | 0.00 | 0.00 | 55 | 1016.1 |
| 20260902211015 | 33 | 146 | 3.2 | 9.7 | 0.00 | 0.00 | 0.00 | 57 | 1016.0 |
| 20260902210514 | 33 | 177 | 4.8 | 12.9 | 0.00 | 0.00 | 0.00 | 55 | 1016.0 |
| 20260902210021 | 33 | 297 | 1.6 | 20.9 | 0.00 | 0.00 | 0.00 | 56 | 1016.1 |
| 20260902205512 | 33 | 256 | 4.8 | 20.9 | 0.00 | 0.00 | 0.00 | 55 | 1016.1 |
| 20260902205012 | 33 | 182 | 6.4 | 17.7 | 0.00 | 0.00 | 0.00 | 56 | 1016.2 |
| 20260902204540 | 33 | 181 | 6.4 | 14.5 | 0.00 | 0.00 | 0.00 | 54 | 1016.2 |
| 20260902204016 | 33 | 213 | 6.4 | 14.5 | 0.00 | 0.00 | 0.00 | 54 | 1016.3 |
| 20260902203524 | 33 | 223 | 4.8 | 14.5 | 0.00 | 0.00 | 0.00 | 54 | 1016.3 |
| 20260902203029 | 33 | 338 | 4.8 | 14.5 | 0.00 | 0.00 | 0.00 | 55 | 1016.4 |
| 20260902202517 | 33 | 208 | 6.4 | 12.9 | 0.00 | 0.00 | 0.00 | 55 | 1016.5 |
| 20260902202014 | 33 | 168 | 6.4 | 11.3 | 0.00 | 0.00 | 0.00 | 57 | 1016.6 |
| 20260902201533 | 33 | 188 | 4.8 | 14.5 | 0.00 | 0.00 | 0.00 | 59 | 1016.7 |
| 20260902201018 | 33 | 207 | 8.0 | 14.5 | 0.00 | 0.00 | 0.00 | 56 | 1016.7 |
| 20260902200518 | 33 | 162 | 4.8 | 12.9 | 0.00 | 0.00 | 0.00 | 60 | 1016.7 |
| 20260902200036 | 32 | 193 | 1.6 | 12.9 | 0.00 | 0.00 | 0.00 | 60 | 1016.7 |
| 20260902195519 | 33 | 175 | 1.6 | 14.5 | 0.00 | 0.00 | 0.00 | 57 | 1016.8 |
| 20260902195010 | 33 | 171 | 6.4 | 14.5 | 0.00 | 0.00 | 0.00 | 55 | 1016.8 |
| 20260902194528 | 33 | 209 | 4.8 | 14.5 | 0.00 | 0.00 | 0.00 | 57 | 1016.9 |
| 20260902194014 | 33 | 191 | 3.2 | 14.5 | 0.00 | 0.00 | 0.00 | 60 | 1017.0 |
| 20260902193514 | 33 | 265 | 3.2 | 11.3 | 0.00 | 0.00 | 0.00 | 60 | 1016.9 |
| 20260902193033 | 33 | 270 | 3.2 | 8.0 | 0.00 | 0.00 | 0.00 | 59 | 1017.1 |
| 20260902192518 | 32 | 325 | 3.2 | 9.7 | 0.00 | 0.00 | 0.00 | 60 | 1017.1 |
| 20260902192013 | 32 | 159 | 3.2 | 14.5 | 0.00 | 0.00 | 0.00 | 60 | 1017.2 |
| 20260902191534 | 32 | 175 | 4.8 | 14.5 | 0.00 | 0.00 | 0.00 | 58 | 1017.3 |
| 20260902191015 | 33 | 171 | 6.4 | 16.1 | 0.00 | 0.00 | 0.00 | 57 | 1017.3 |
| 20260902190519 | 33 | 185 | 6.4 | 16.1 | 0.00 | 0.00 | 0.00 | 57 | 1017.3 |
| 20260902190037 | 33 | 180 | 6.4 | 14.5 | 0.00 | 0.00 | 0.00 | 56 | 1017.4 |
| 20260902185518 | 33 | 284 | 4.8 | 14.5 | 0.00 | 0.00 | 0.00 | 58 | 1017.3 |
| 20260902185018 | 33 | 187 | 3.2 | 11.3 | 0.00 | 0.00 | 0.00 | 58 | 1017.3 |
| 20260902184543 | 33 | 309 | 4.8 | 16.1 | 0.00 | 0.00 | 0.00 | 58 | 1017.4 |
| 20260902184012 | 33 | 220 | 3.2 | 16.1 | 0.00 | 0.00 | 0.00 | 57 | 1017.5 |
| 20260902183514 | 33 | 309 | 6.4 | 14.5 | 0.00 | 0.00 | 0.00 | 57 | 1017.6 |
| 20260902183049 | 33 | 260 | 1.6 | 11.3 | 0.00 | 0.00 | 0.00 | 61 | 1017.5 |
| 20260902182517 | 33 | 190 | 3.2 | 11.3 | 0.00 | 0.00 | 0.00 | 58 | 1017.6 |
| 20260902182015 | 33 | 305 | 4.8 | 11.3 | 0.00 | 0.00 | 0.00 | 57 | 1017.8 |
| 20260902181533 | 33 | 288 | 4.8 | 17.7 | 0.00 | 0.00 | 0.00 | 59 | 1017.9 |
| 20260902181017 | 33 | 169 | 3.2 | 17.7 | 0.00 | 0.00 | 0.00 | 59 | 1017.8 |
| 20260902180518 | 33 | 224 | 3.2 | 11.3 | 0.00 | 0.00 | 0.00 | 58 | 1017.9 |
| 20260902180038 | 33 | 209 | 1.6 | 11.3 | 0.00 | 0.00 | 0.00 | 61 | 1017.9 |
| 20260902175516 | 33 | 314 | 4.8 | 11.3 | 0.00 | 0.00 | 0.00 | 60 | 1017.9 |
| 20260902175018 | 32 | 207 | 3.2 | 9.7 | 0.00 | 0.00 | 0.00 | 61 | 1018.0 |
| 20260902174533 | 32 | 107 | 1.6 | 11.3 | 0.00 | 0.00 | 0.00 | 62 | 1018.0 |
| 20260902174019 | 32 | 183 | 3.2 | 12.9 | 0.00 | 0.00 | 0.00 | 59 | 1018.2 |
| 20260902173522 | 32 | 302 | 4.8 | 12.9 | 0.00 | 0.00 | 0.00 | 59 | 1018.3 |
| 20260902173043 | 32 | 268 | 3.2 | 12.9 | 0.00 | 0.00 | 0.00 | 61 | 1018.3 |
| 20260902172514 | 32 | 175 | 3.2 | 11.3 | 0.00 | 0.00 | 0.00 | 62 | 1018.4 |
| 20260902172014 | 32 | 297 | 4.8 | 11.3 | 0.00 | 0.00 | 0.00 | 61 | 1018.4 |
| 20260902171533 | 32 | 189 | 4.8 | 11.3 | 0.00 | 0.00 | 0.00 | 61 | 1018.5 |
| 20260902171015 | 32 | 169 | 4.8 | 9.7 | 0.00 | 0.00 | 0.00 | 62 | 1018.5 |
| 20260902170517 | 32 | 254 | 3.2 | 11.3 | 0.00 | 0.00 | 0.00 | 63 | 1018.6 |
| 20260902170034 | 32 | 294 | 6.4 | 11.3 | 0.00 | 0.00 | 0.00 | 62 | 1018.6 |
| 20260902165515 | 32 | 283 | 3.2 | 14.5 | 0.00 | 0.00 | 0.00 | 64 | 1018.6 |
| 20260902165015 | 32 | 180 | 1.6 | 14.5 | 0.00 | 0.00 | 0.00 | 64 | 1018.6 |
| 20260902164521 | 32 | 292 | 6.4 | 9.7 | 0.00 | 0.00 | 0.00 | 61 | 1018.6 |
| 20260902164010 | 32 | 267 | 1.6 | 9.7 | 0.00 | 0.00 | 0.00 | 65 | 1018.6 |
| 20260902163511 | 31 | 317 | 4.8 | 9.7 | 0.00 | 0.00 | 0.00 | 65 | 1018.6 |
| 20260902163004 | 31 | 290 | 4.8 | 9.7 | 0.00 | 0.00 | 0.00 | 63 | 1018.6 |
| 20260902162501 | 31 | 195 | 4.8 | 9.7 | 0.00 | 0.00 | 0.00 | 64 | 1018.6 |
| 20260902162004 | 31 | 213 | 3.2 | 9.7 | 0.00 | 0.00 | 0.00 | 67 | 1018.5 |
| 20260902161504 | 31 | 209 | 3.2 | 9.7 | 0.00 | 0.00 | 0.00 | 66 | 1018.5 |
| 20260902161004 | 31 | 252 | 3.2 | 11.3 | 0.00 | 0.00 | 0.00 | 66 | 1018.6 |
| 20260902160504 | 31 | 249 | 3.2 | 11.3 | 0.00 | 0.00 | 0.00 | 63 | 1018.6 |
| 20260902160014 | 31 | 299 | 4.8 | 9.7 | 0.00 | 0.00 | 0.00 | 65 | 1018.6 |
| 20260902155506 | 31 | 288 | 3.2 | 9.7 | 0.00 | 0.00 | 0.00 | 68 | 1018.6 |
| 20260902155004 | 31 | 197 | 3.2 | 9.7 | 0.00 | 0.00 | 0.00 | 69 | 1018.7 |
| 20260902154516 | 31 | 116 | 1.6 | 9.7 | 0.00 | 0.00 | 0.00 | 69 | 1018.7 |
| 20260902154008 | 31 | 267 | 3.2 | 11.3 | 0.00 | 0.00 | 0.00 | 67 | 1018.8 |
| 20260902153510 | 31 | 152 | 3.2 | 11.3 | 0.00 | 0.00 | 0.00 | 67 | 1018.9 |
| 20260902153020 | 30 | 243 | 3.2 | 11.3 | 0.00 | 0.00 | 0.00 | 70 | 1018.8 |
| 20260902152512 | 30 | 253 | 4.8 | 11.3 | 0.00 | 0.00 | 0.00 | 69 | 1018.7 |
| 20260902152013 | 30 | 297 | 3.2 | 11.3 | 0.00 | 0.00 | 0.00 | 71 | 1018.8 |
| 20260902151506 | 30 | 172 | 3.2 | 11.3 | 0.00 | 0.00 | 0.00 | 71 | 1018.8 |
| 20260902151004 | 30 | 244 | 4.8 | 11.3 | 0.00 | 0.00 | 0.00 | 69 | 1018.7 |
| 20260902150504 | 30 | 170 | 3.2 | 9.7 | 0.00 | 0.00 | 0.00 | 71 | 1018.6 |
| 20260902150010 | 30 | 309 | 3.2 | 11.3 | 0.00 | 0.00 | 0.00 | 71 | 1018.7 |
| 20260902145506 | 29 | 279 | 3.2 | 11.3 | 0.00 | 0.00 | 0.00 | 72 | 1018.7 |
| 20260902145007 | 29 | 232 | 1.6 | 11.3 | 0.00 | 0.00 | 0.00 | 75 | 1018.7 |
| 20260902144510 | 29 | 188 | 4.8 | 11.3 | 0.00 | 0.00 | 0.00 | 72 | 1018.7 |
| 20260902144008 | 29 | 316 | 3.2 | 11.3 | 0.00 | 0.00 | 0.00 | 71 | 1018.6 |
| 20260902143508 | 29 | 329 | 6.4 | 11.3 | 0.00 | 0.00 | 0.00 | 72 | 1018.6 |
| 20260902143020 | 28 | 180 | 1.6 | 11.3 | 0.00 | 0.00 | 0.00 | 74 | 1018.5 |
| 20260902142512 | 28 | 292 | 4.8 | 11.3 | 0.00 | 0.00 | 0.00 | 75 | 1018.6 |
| 20260902142010 | 28 | 271 | 1.6 | 9.7 | 0.00 | 0.00 | 0.00 | 76 | 1018.5 |
| 20260902141523 | 28 | 307 | 1.6 | 9.7 | 0.00 | 0.00 | 0.00 | 76 | 1018.6 |
| 20260902141013 | 27 | 203 | 3.2 | 9.7 | 0.00 | 0.00 | 0.00 | 79 | 1018.5 |
| 20260902140501 | 27 | 237 | 1.6 | 6.4 | 0.00 | 0.00 | 0.00 | 79 | 1018.4 |
| 20260902140004 | 27 | 291 | 1.6 | 6.4 | 0.00 | 0.00 | 0.00 | 80 | 1018.4 |
| 20260902135504 | 27 | 273 | 1.6 | 6.4 | 0.00 | 0.00 | 0.00 | 79 | 1018.4 |
| 20260902135007 | 27 | 302 | 1.6 | 8.0 | 0.00 | 0.00 | 0.00 | 80 | 1018.4 |
| 20260902134510 | 27 | 181 | 3.2 | 8.0 | 0.00 | 0.00 | 0.00 | 80 | 1018.4 |
| 20260902134008 | 26 | 281 | 0.0 | 14.5 | 0.00 | 0.00 | 0.00 | 83 | 1018.4 |
| 20260902133509 | 26 | 201 | 3.2 | 11.3 | 0.00 | 0.00 | 0.00 | 84 | 1018.4 |
| 20260902133016 | 26 | 188 | 3.2 | 6.4 | 0.00 | 0.00 | 0.00 | 84 | 1018.4 |
| 20260902132512 | 26 | 175 | 1.6 | 3.2 | 0.00 | 0.00 | 0.00 | 85 | 1018.4 |
| 20260902132010 | 25 | 205 | 0.0 | 6.4 | 0.00 | 0.00 | 0.00 | 86 | 1018.4 |
| 20260902131523 | 25 | 190 | 0.0 | 6.4 | 0.00 | 0.00 | 0.00 | 86 | 1018.4 |
| 20260902131012 | 25 | 180 | 1.6 | 4.8 | 0.00 | 0.00 | 0.00 | 87 | 1018.3 |
| 20260902130512 | 24 | 173 | 1.6 | 4.8 | 0.00 | 0.00 | 0.00 | 88 | 1018.2 |
| 20260902130027 | 24 | 184 | 0.0 | 8.0 | 0.00 | 0.00 | 0.00 | 88 | 1018.3 |
| 20260902125504 | 24 | 235 | 1.6 | 8.0 | 0.00 | 0.00 | 0.00 | 88 | 1018.2 |
| 20260902125005 | 23 | 195 | 0.0 | 3.2 | 0.00 | 0.00 | 0.00 | 90 | 1018.3 |
| 20260902124511 | 23 | 200 | 0.0 | 4.8 | 0.00 | 0.00 | 0.00 | 90 | 1018.2 |
| 20260902124009 | 23 | 189 | 0.0 | 4.8 | 0.00 | 0.00 | 0.00 | 90 | 1018.2 |
| 20260902123506 | 23 | 194 | 3.2 | 4.8 | 0.00 | 0.00 | 0.00 | 91 | 1018.1 |
| 20260902123014 | 22 | 215 | 1.6 | 4.8 | 0.00 | 0.00 | 0.00 | 92 | 1018.2 |
| 20260902122508 | 22 | 194 | 1.6 | 4.8 | 0.00 | 0.00 | 0.00 | 93 | 1018.1 |
| 20260902122009 | 22 | 175 | 1.6 | 3.2 | 0.00 | 0.00 | 0.00 | 94 | 1018.1 |
| 20260902121523 | 21 | 175 | 0.0 | 3.2 | 0.00 | 0.00 | 0.00 | 95 | 1018.2 |
| 20260902121011 | 21 | 175 | 0.0 | 0.0 | 0.00 | 0.00 | 0.00 | 95 | 1018.2 |
| 20260902120512 | 21 | 175 | 0.0 | 0.0 | 0.00 | 0.00 | 0.00 | 95 | 1018.1 |
| 20260902120026 | 21 | 175 | 0.0 | 0.0 | 0.00 | 0.00 | 0.00 | 94 | 1018.0 |
| 20260902115514 | 21 | 175 | 0.0 | 0.0 | 0.00 | 0.00 | 0.00 | 94 | 1018.0 |
| 20260902115015 | 21 | 175 | 0.0 | 3.2 | 0.00 | 0.00 | 0.00 | 94 | 1018.2 |
| 20260902114530 | 21 | 175 | 0.0 | 3.2 | 0.00 | 0.00 | 0.00 | 94 | 1018.0 |
| 20260902114005 | 21 | 175 | 0.0 | 3.2 | 0.00 | 0.00 | 0.00 | 94 | 1017.9 |
| 20260902113505 | 21 | 175 | 0.0 | 3.2 | 0.00 | 0.00 | 0.00 | 95 | 1018.0 |
| 20260902113011 | 21 | 175 | 0.0 | 3.2 | 0.00 | 0.00 | 0.00 | 95 | 1018.0 |
| 20260902112507 | 21 | 175 | 0.0 | 3.2 | 0.00 | 0.00 | 0.00 | 95 | 1017.9 |
| 20260902112008 | 21 | 175 | 0.0 | 3.2 | 0.00 | 0.00 | 0.00 | 95 | 1017.9 |
| 20260902111521 | 21 | 175 | 0.0 | 3.2 | 0.00 | 0.00 | 0.00 | 94 | 1017.9 |
| 20260902111009 | 21 | 175 | 0.0 | 3.2 | 0.00 | 0.00 | 0.00 | 94 | 1017.8 |
| 20260902110511 | 21 | 175 | 0.0 | 1.6 | 0.00 | 0.00 | 0.00 | 94 | 1017.8 |
| 20260902110037 | 21 | 175 | 0.0 | 3.2 | 0.00 | 0.00 | 0.00 | 94 | 1017.9 |
| 20260902105515 | 21 | 175 | 0.0 | 3.2 | 0.00 | 0.00 | 0.00 | 94 | 1017.8 |
| 20260902105014 | 21 | 175 | 0.0 | 3.2 | 0.00 | 0.00 | 0.00 | 94 | 1017.8 |
| 20260902104550 | 21 | 175 | 0.0 | 3.2 | 0.00 | 0.00 | 0.00 | 94 | 1017.7 |
| 20260902104017 | 21 | 175 | 0.0 | 3.2 | 0.00 | 0.00 | 0.00 | 94 | 1017.7 |
| 20260902103516 | 21 | 175 | 0.0 | 3.2 | 0.00 | 0.00 | 0.00 | 94 | 1017.7 |
| 20260902103026 | 21 | 175 | 0.0 | 3.2 | 0.00 | 0.00 | 0.00 | 94 | 1017.7 |
| 20260902102505 | 21 | 175 | 0.0 | 3.2 | 0.00 | 0.00 | 0.00 | 94 | 1017.7 |
| 20260902102007 | 21 | 175 | 0.0 | 3.2 | 0.00 | 0.00 | 0.00 | 94 | 1017.7 |
| 20260902101519 | 21 | 175 | 0.0 | 3.2 | 0.00 | 0.00 | 0.00 | 93 | 1017.7 |
| 20260902101008 | 21 | 175 | 0.0 | 3.2 | 0.00 | 0.00 | 0.00 | 93 | 1017.6 |
| 20260902100512 | 21 | 175 | 0.0 | 3.2 | 0.00 | 0.00 | 0.00 | 94 | 1017.7 |
| 20260902100024 | 21 | 175 | 0.0 | 1.6 | 0.00 | 0.00 | 0.00 | 93 | 1017.7 |
| 20260902095511 | 21 | 175 | 0.0 | 3.2 | 0.00 | 0.00 | 0.00 | 93 | 1017.7 |
| 20260902095012 | 21 | 175 | 0.0 | 3.2 | 0.00 | 0.00 | 0.00 | 93 | 1017.7 |
| 20260902094528 | 21 | 175 | 0.0 | 3.2 | 0.00 | 0.00 | 0.00 | 93 | 1017.7 |
| 20260902094014 | 21 | 175 | 0.0 | 3.2 | 0.00 | 0.00 | 0.00 | 93 | 1017.6 |
| 20260902093515 | 21 | 175 | 0.0 | 3.2 | 0.00 | 0.00 | 0.00 | 94 | 1017.5 |
| 20260902093029 | 21 | 175 | 0.0 | 3.2 | 0.00 | 0.00 | 0.00 | 94 | 1017.5 |
| 20260902092520 | 21 | 175 | 0.0 | 3.2 | 0.00 | 0.00 | 0.00 | 94 | 1017.5 |
| 20260902092009 | 21 | 175 | 0.0 | 3.2 | 0.00 | 0.00 | 0.00 | 94 | 1017.6 |
| 20260902091515 | 21 | 175 | 0.0 | 3.2 | 0.00 | 0.00 | 0.00 | 94 | 1017.6 |
| 20260902091006 | 21 | 175 | 0.0 | 3.2 | 0.00 | 0.00 | 0.00 | 94 | 1017.7 |
| 20260902090514 | 21 | 175 | 0.0 | 0.0 | 0.00 | 0.00 | 0.00 | 94 | 1017.7 |
| 20260902090027 | 21 | 175 | 0.0 | 3.2 | 0.00 | 0.00 | 0.00 | 94 | 1017.7 |
| 20260902085510 | 21 | 175 | 0.0 | 3.2 | 0.00 | 0.00 | 0.00 | 95 | 1017.7 |
| 20260902085014 | 21 | 175 | 0.0 | 3.2 | 0.00 | 0.00 | 0.00 | 95 | 1017.7 |
| 20260902084536 | 21 | 175 | 0.0 | 3.2 | 0.00 | 0.00 | 0.00 | 95 | 1017.6 |
| 20260902084014 | 21 | 175 | 0.0 | 1.6 | 0.00 | 0.00 | 0.00 | 95 | 1017.4 |
| 20260902083520 | 21 | 175 | 0.0 | 0.0 | 0.00 | 0.00 | 0.00 | 94 | 1017.4 |
| 20260902083032 | 21 | 175 | 0.0 | 0.0 | 0.00 | 0.00 | 0.00 | 94 | 1017.4 |
| 20260902082516 | 21 | 175 | 0.0 | 0.0 | 0.00 | 0.00 | 0.00 | 93 | 1017.4 |
| 20260902082017 | 21 | 175 | 0.0 | 3.2 | 0.00 | 0.00 | 0.00 | 93 | 1017.5 |
| 20260902081533 | 21 | 175 | 0.0 | 3.2 | 0.00 | 0.00 | 0.00 | 93 | 1017.4 |
| 20260902081018 | 21 | 175 | 0.0 | 3.2 | 0.00 | 0.00 | 0.00 | 94 | 1017.2 |
| 20260902080507 | 21 | 175 | 0.0 | 3.2 | 0.00 | 0.00 | 0.00 | 94 | 1017.1 |
| 20260902080022 | 21 | 175 | 0.0 | 3.2 | 0.00 | 0.00 | 0.00 | 94 | 1017.2 |
| 20260902075508 | 21 | 175 | 0.0 | 1.6 | 0.00 | 0.00 | 0.00 | 95 | 1017.3 |
| 20260902075015 | 21 | 175 | 0.0 | 0.0 | 0.00 | 0.00 | 0.00 | 94 | 1017.3 |
| 20260902074523 | 21 | 175 | 0.0 | 0.0 | 0.00 | 0.00 | 0.00 | 94 | 1017.3 |
| 20260902074012 | 21 | 175 | 0.0 | 0.0 | 0.00 | 0.00 | 0.00 | 94 | 1017.3 |
| 20260902073516 | 21 | 175 | 0.0 | 0.0 | 0.00 | 0.00 | 0.00 | 93 | 1017.1 |
| 20260902073030 | 22 | 175 | 0.0 | 0.0 | 0.00 | 0.00 | 0.00 | 94 | 1017.2 |
| 20260902072514 | 22 | 175 | 0.0 | 0.0 | 0.00 | 0.00 | 0.00 | 93 | 1017.2 |
| 20260902072016 | 22 | 175 | 0.0 | 3.2 | 0.00 | 0.00 | 0.00 | 94 | 1017.2 |
| 20260902071531 | 22 | 175 | 0.0 | 3.2 | 0.00 | 0.00 | 0.00 | 94 | 1017.3 |
| 20260902071020 | 22 | 175 | 0.0 | 3.2 | 0.00 | 0.00 | 0.00 | 94 | 1017.3 |
| 20260902070518 | 22 | 175 | 0.0 | 3.2 | 0.00 | 0.00 | 0.00 | 94 | 1017.3 |
| 20260902070033 | 22 | 175 | 0.0 | 0.0 | 0.00 | 0.00 | 0.00 | 94 | 1017.2 |
| 20260902065507 | 22 | 175 | 0.0 | 0.0 | 0.00 | 0.00 | 0.00 | 94 | 1017.2 |
| 20260902065012 | 22 | 175 | 0.0 | 0.0 | 0.00 | 0.00 | 0.00 | 94 | 1017.2 |
| 20260902064527 | 22 | 175 | 0.0 | 0.0 | 0.00 | 0.00 | 0.00 | 93 | 1017.3 |
| 20260902064013 | 22 | 175 | 0.0 | 0.0 | 0.00 | 0.00 | 0.00 | 93 | 1017.3 |
| 20260902063510 | 22 | 175 | 0.0 | 0.0 | 0.00 | 0.00 | 0.00 | 93 | 1017.3 |
| 20260902063044 | 22 | 175 | 0.0 | 0.0 | 0.00 | 0.00 | 0.00 | 92 | 1017.3 |
| 20260902062516 | 22 | 175 | 0.0 | 1.6 | 0.00 | 0.00 | 0.00 | 92 | 1017.4 |
| 20260902062013 | 22 | 175 | 0.0 | 1.6 | 0.00 | 0.00 | 0.00 | 92 | 1017.4 |
| 20260902061550 | 22 | 175 | 0.0 | 0.0 | 0.00 | 0.00 | 0.00 | 92 | 1017.4 |
| 20260902061018 | 23 | 175 | 0.0 | 0.0 | 0.00 | 0.00 | 0.00 | 92 | 1017.3 |
| 20260902060503 | 23 | 175 | 0.0 | 3.2 | 0.00 | 0.00 | 0.00 | 92 | 1017.3 |
| 20260902060016 | 23 | 175 | 0.0 | 3.2 | 0.00 | 0.00 | 0.00 | 92 | 1017.3 |
| 20260902055506 | 22 | 175 | 0.0 | 3.2 | 0.00 | 0.00 | 0.00 | 93 | 1017.3 |
| 20260902055010 | 22 | 175 | 0.0 | 3.2 | 0.00 | 0.00 | 0.00 | 93 | 1017.4 |
| 20260902054516 | 22 | 175 | 0.0 | 0.0 | 0.00 | 0.00 | 0.00 | 93 | 1017.2 |
| 20260902054008 | 22 | 175 | 0.0 | 0.0 | 0.00 | 0.00 | 0.00 | 93 | 1017.3 |
| 20260902053508 | 22 | 175 | 0.0 | 0.0 | 0.00 | 0.00 | 0.00 | 93 | 1017.2 |
| 20260902053002 | 22 | 175 | 0.0 | 3.2 | 0.00 | 0.00 | 0.00 | 93 | 1017.2 |
| 20260902052504 | 22 | 175 | 0.0 | 3.2 | 0.00 | 0.00 | 0.00 | 93 | 1017.2 |
| 20260902052004 | 22 | 175 | 0.0 | 1.6 | 0.00 | 0.00 | 0.00 | 94 | 1017.2 |
| 20260902051506 | 22 | 175 | 0.0 | 0.0 | 0.00 | 0.00 | 0.00 | 93 | 1017.2 |
| 20260902051003 | 22 | 175 | 0.0 | 0.0 | 0.00 | 0.00 | 0.00 | 93 | 1017.2 |
| 20260902050508 | 22 | 175 | 0.0 | 0.0 | 0.00 | 0.00 | 0.00 | 93 | 1017.2 |
| 20260902050013 | 22 | 175 | 0.0 | 0.0 | 0.00 | 0.00 | 0.00 | 92 | 1017.1 |
| 20260902045505 | 23 | 175 | 0.0 | 0.0 | 0.00 | 0.00 | 0.00 | 92 | 1017.1 |
| 20260902045008 | 23 | 175 | 0.0 | 0.0 | 0.00 | 0.00 | 0.00 | 92 | 1017.2 |
| 20260902044536 | 23 | 175 | 0.0 | 0.0 | 0.00 | 0.00 | 0.00 | 92 | 1017.2 |
| 20260902044008 | 23 | 175 | 0.0 | 0.0 | 0.00 | 0.00 | 0.00 | 92 | 1017.1 |
| 20260902043508 | 23 | 175 | 0.0 | 0.0 | 0.00 | 0.00 | 0.00 | 92 | 1017.2 |
| 20260902043023 | 23 | 175 | 0.0 | 0.0 | 0.00 | 0.00 | 0.00 | 91 | 1017.2 |
| 20260902042508 | 23 | 175 | 0.0 | 0.0 | 0.00 | 0.00 | 0.00 | 91 | 1017.2 |
| 20260902042011 | 23 | 175 | 0.0 | 0.0 | 0.00 | 0.00 | 0.00 | 91 | 1017.1 |
| 20260902041504 | 23 | 175 | 0.0 | 0.0 | 0.00 | 0.00 | 0.00 | 91 | 1017.1 |
| 20260902041003 | 23 | 175 | 0.0 | 0.0 | 0.00 | 0.00 | 0.00 | 90 | 1017.1 |
| 20260902040503 | 23 | 175 | 0.0 | 3.2 | 0.00 | 0.00 | 0.00 | 91 | 1017.1 |
| 20260902040013 | 23 | 175 | 0.0 | 3.2 | 0.00 | 0.00 | 0.00 | 91 | 1017.1 |
| 20260902035504 | 23 | 175 | 0.0 | 3.2 | 0.00 | 0.00 | 0.00 | 91 | 1017.1 |
| 20260902035005 | 23 | 175 | 0.0 | 3.2 | 0.00 | 0.00 | 0.00 | 92 | 1017.1 |
| 20260902034514 | 23 | 175 | 0.0 | 3.2 | 0.00 | 0.00 | 0.00 | 92 | 1017.2 |
| 20260902034008 | 23 | 175 | 0.0 | 3.2 | 0.00 | 0.00 | 0.00 | 92 | 1017.1 |
| 20260902033512 | 23 | 175 | 0.0 | 0.0 | 0.00 | 0.00 | 0.00 | 92 | 1017.2 |
| 20260902033024 | 23 | 175 | 0.0 | 0.0 | 0.00 | 0.00 | 0.00 | 91 | 1017.2 |
| 20260902032514 | 23 | 175 | 0.0 | 0.0 | 0.00 | 0.00 | 0.00 | 91 | 1017.2 |
| 20260902032016 | 24 | 175 | 0.0 | 3.2 | 0.00 | 0.00 | 0.00 | 91 | 1017.3 |
| 20260902031542 | 24 | 175 | 0.0 | 3.2 | 0.00 | 0.00 | 0.00 | 91 | 1017.3 |
| 20260902031012 | 24 | 175 | 0.0 | 3.2 | 0.00 | 0.00 | 0.00 | 91 | 1017.3 |
| 20260902030503 | 24 | 175 | 0.0 | 3.2 | 0.00 | 0.00 | 0.00 | 92 | 1017.3 |
| 20260902030010 | 24 | 175 | 0.0 | 3.2 | 0.00 | 0.00 | 0.00 | 92 | 1017.3 |